一网星座-0276星 (ONEWEB-0276 )

导读 | 星芒AI

ONEWEB-0276 是 OneWeb 卫星星座计划中的一颗低轨通信卫星,旨在为全球提供高速互联网服务。该卫星采用标准化设计,由阿丽亚娜集团制造,搭载星间激光通信系统,以提升数据传输效率。它于 2023 年发射,运行在约 1200 公里的近地轨道,是 OneWeb 扩展其全球宽带网络的重要组成部分。该星座致力于为偏远地区提供稳定、低延迟的互联网接入,支持航空、航海及地面用户的通信需求。

基本信息
目录编号:
48994
目录名称:
ONEWEB-0276
国际标识:
2021-060AD
轨道中心:
EARTH
卫星名称:
一网星座-0276星
卫星全名:
一网星座-0276星 (ONEWEB-0276 )
卫星状态:
在轨 (已飞行1628 天)
发射日期:
2021-07-01 UTC
国别 :
英国 (GB)
星等 :
--
轨道信息
数据来源 国际轨道数据
星历时间: 2025-12-15T03:37:59+0800
23小时前
查看轨道信息
半长轴: 7575.89km
偏心率: 0.0001645
轨道倾角: 87.905°
近地点辐角 67.747°
升交点赤经 265.486°
平近点角 292.384°
近地点: 1196.508km
远地点: 1199.002km
周期: 109.373分钟
每日圈数: 13.165953
详细信息
平衡模式:
三轴稳定
覆盖范围:
全球
运营商:
一网卫星公司
运营商所在国:
英国
制造商(研发单位):
一网卫星公司
制造商所在国:
英国
使用方式:
暂无
卫星简介
OneWeb卫星网络由648颗重约125公斤的微型卫星组成,运行在1200公里的轨道上。 每颗卫星都能够提供至少每秒8千兆位的吞吐量,以使用其高吞吐量的Ku频段有效载荷为家庭和移动平台提供互联网接入。该卫星仍在工作。
2D轨道图
3D轨道图
轨道高度分析图
轨道倾角分析图
轨道综合分析图
查看轨道综合分析图